Theta_e
324 320 317 317 312 315 311 305 300 297 294 290 286 292 296 295 296 296 296 296 298 298 298 296 296 300 301 300 301 300 299 298 297 295 298 308 311 314 324 332 330 333 336 338 342 346 349 347 351 352 354 354 354 354 353 353 352 352 351 350 349 350 349 348 348 348 347 346 346 347 346 346 347 347 347 347 347 347 347 348 347 348 348 348 349 347 347 347 346 345 344 343 341 339 338 336 334
318 318 313 314 316 316 311 299 292 289 288 288 292 288 292 292 295 293 297 297 299 301 297 295 296 296 294 295 296 297 300 300 300 304 303 304 306 312 316 329 329 334 336 339 343 346 348 351 348 352 354 354 354 354 353 353 353 352 351 350 350 350 349 349 347 347 347 346 346 346 346 346 346 346 346 345 346 346 347 347 347 347 348 348 347 347 347 346 346 345 344 343 341 338 337 334 333
317 317 318 313 314 308 303 300 300 284 287 287 289 291 292 295 295 296 294 297 299 298 293 296 296 297 300 299 301 298 301 300 296 297 302 309 311 310 320 326 331 335 336 340 343 346 348 348 345 352 354 353 354 354 353 353 353 352 351 350 350 350 349 348 347 347 346 346 346 345 345 345 345 346 345 345 346 346 346 346 347 347 347 347 347 346 346 345 345 344 342 341 339 337 335 333 331
316 315 314 311 311 302 297 291 289 287 286 286 287 291 290 295 295 294 295 294 294 293 297 301 302 302 301 298 301 299 297 302 300 306 307 313 310 310 321 328 333 336 338 340 344 345 347 346 344 350 354 354 353 354 353 353 352 352 351 351 350 349 349 348 348 348 346 345 345 345 345 345 345 346 345 345 345 345 345 346 346 346 347 346 346 345 345 344 343 342 341 340 336 334 333 331 330
315 316 309 307 304 302 293 289 287 287 290 286 291 291 291 292 295 294 295 295 293 294 298 300 299 300 301 302 300 301 304 305 306 304 309 311 313 316 322 329 334 337 338 340 343 345 347 342 343 348 353 354 353 354 353 353 352 352 351 351 350 350 349 348 347 347 348 345 345 345 345 345 345 345 346 345 345 345 344 345 345 347 346 345 345 344 344 342 341 340 340 338 335 332 330 329 329
311 309 309 309 306 301 296 292 292 290 291 289 291 297 292 291 294 295 294 295 296 295 297 297 300 301 301 301 299 304 301 305 306 307 309 314 316 320 326 332 334 336 337 340 343 346 347 341 345 346 352 353 353 354 354 353 353 352 351 351 350 349 349 348 347 347 348 346 344 344 345 345 346 346 346 345 344 344 344 345 346 346 346 345 344 343 342 341 339 338 338 337 336 332 328 328 328
314 308 304 306 301 299 294 287 290 289 297 290 294 292 294 293 292 293 296 298 298 298 295 301 295 299 300 299 301 301 301 303 309 308 314 316 316 322 329 334 334 334 336 338 342 344 345 340 346 348 351 352 353 353 354 352 352 352 351 350 350 349 349 348 347 346 347 347 346 345 345 345 346 347 346 345 345 344 344 345 346 346 345 344 343 341 341 340 338 338 337 337 336 332 328 327 327
311 310 302 300 294 293 290 287 291 289 296 290 293 293 291 291 290 293 294 298 298 299 298 292 295 297 302 298 300 304 300 302 309 306 311 316 317 324 330 334 333 333 336 337 340 343 339 339 345 347 350 352 352 353 353 352 352 351 351 350 350 349 349 348 347 346 347 347 347 347 347 347 347 346 346 345 344 344 344 345 345 345 345 343 342 341 341 340 342 341 339 337 335 332 328 326 327
305 305 298 299 292 288 286 291 292 289 290 291 293 292 300 299 292 294 296 295 296 294 292 297 297 298 297 297 299 302 302 303 303 310 318 318 323 325 330 331 332 333 336 338 339 340 343 337 342 345 346 351 352 353 353 352 352 351 350 350 349 349 348 348 347 347 347 347 346 347 347 347 347 346 345 345 344 344 344 345 345 345 343 342 341 341 340 340 339 339 338 337 334 330 326 325 325
305 304 298 295 289 291 284 291 291 293 293 293 292 295 293 292 293 295 297 298 298 294 297 295 295 299 297 299 298 303 303 301 301 316 317 317 319 325 328 325 328 333 335 337 338 340 341 337 337 341 345 349 351 351 352 352 352 351 350 350 349 349 349 349 347 347 347 347 346 347 347 347 347 347 346 345 344 344 345 345 345 344 343 342 341 340 339 338 339 339 338 335 330 327 325 324 325
300 296 295 293 286 287 290 289 286 291 292 292 292 293 293 292 294 294 293 295 292 295 296 294 300 298 296 298 298 301 301 302 309 311 310 310 318 321 327 320 326 332 334 335 336 338 340 342 334 337 340 343 346 349 350 351 351 351 350 350 349 349 350 350 349 348 349 347 347 348 347 347 347 347 346 345 344 344 345 345 345 344 342 341 340 339 338 337 336 339 337 334 329 326 324 323 323
300 293 293 285 287 289 288 287 288 289 291 290 297 295 294 294 294 296 296 298 294 292 295 298 300 297 296 295 305 304 301 302 302 305 308 312 319 317 319 319 324 328 331 332 333 334 336 339 341 336 334 336 341 344 346 347 348 349 349 349 349 349 349 349 349 349 349 349 348 347 347 348 348 347 345 345 344 344 344 344 343 343 342 341 340 338 337 336 339 339 335 332 330 327 324 322 322
295 290 288 289 289 288 287 288 292 292 289 294 296 296 292 293 297 296 294 292 292 295 299 297 299 299 298 300 301 296 302 301 305 305 311 313 316 317 317 317 318 326 327 330 334 333 334 336 339 342 339 332 334 337 340 342 344 346 347 348 347 347 347 348 348 348 348 348 349 348 347 345 345 347 345 344 343 343 344 343 343 342 342 341 339 338 338 340 339 336 334 331 330 327 324 321 322
296 291 290 288 285 285 288 291 288 292 293 295 291 292 292 296 296 295 293 297 295 297 300 297 298 299 300 297 296 293 298 302 304 308 310 313 315 318 318 318 319 322 326 331 333 333 334 334 336 340 342 342 343 338 334 338 341 344 343 344 344 343 345 346 346 346 346 346 344 343 341 341 342 344 344 343 343 342 342 342 341 341 341 341 339 338 339 339 337 335 333 331 329 327 324 321 321
301 292 288 285 284 288 288 293 291 287 295 295 297 294 294 297 292 291 298 293 298 296 296 298 302 300 296 297 295 299 299 303 305 308 309 311 312 313 313 314 318 321 324 328 330 332 333 334 336 338 340 342 344 345 345 342 334 339 340 340 341 341 342 343 343 341 341 341 340 337 334 335 337 338 341 341 340 339 337 339 341 340 341 340 338 338 339 338 336 334 333 331 329 326 323 320 320
296 291 287 288 289 287 291 289 284 289 295 292 294 291 294 297 293 298 297 298 298 299 295 302 300 300 297 297 299 297 298 300 302 306 307 305 308 310 310 308 310 314 314 317 324 328 330 333 335 337 339 341 342 344 344 345 335 332 336 337 338 339 339 340 340 337 337 335 334 330 328 332 333 338 330 338 336 338 334 336 338 341 340 340 338 339 338 336 335 334 332 331 328 326 322 320 321
294 292 288 284 290 288 291 290 288 293 293 292 291 293 296 295 296 293 295 296 298 297 293 296 301 298 296 296 294 295 297 299 300 299 299 299 300 301 302 302 302 305 305 307 311 313 320 330 334 335 337 339 342 342 344 344 342 330 332 333 333 334 335 336 337 332 329 329 329 324 326 338 341 342 339 343 330 340 329 327 335 339 339 337 338 339 338 336 335 333 332 330 327 322 318 316 315
292 288 284 287 286 288 291 291 291 295 294 296 293 291 295 294 296 299 296 295 291 293 295 296 294 295 296 294 296 296 297 297 297 297 296 297 297 298 298 298 299 299 301 302 304 307 311 314 322 334 336 337 340 342 343 343 343 336 342 341 341 337 332 331 338 343 331 340 325 332 338 337 340 341 340 334 339 337 334 324 329 335 336 334 336 338 338 336 334 333 331 328 324 319 312 311 308
289 286 287 290 285 293 292 292 292 293 296 294 293 290 294 297 295 297 297 295 293 295 295 293 296 296 295 297 296 295 296 295 296 296 295 295 295 295 296 297 298 299 300 300 302 304 306 306 310 315 328 337 338 340 341 342 342 341 340 341 342 333 336 334 342 341 341 338 338 338 336 337 340 342 341 336 337 328 335 322 326 331 333 331 332 336 337 335 334 332 330 326 320 314 312 309 306
293 292 290 287 288 289 290 291 294 293 294 294 294 292 294 296 295 296 298 295 294 296 296 296 295 295 293 294 295 294 295 294 295 295 294 294 295 295 295 296 297 298 298 300 301 303 303 304 305 309 315 326 337 338 340 341 342 342 342 341 340 340 340 338 340 339 337 336 337 338 337 338 340 342 329 324 328 338 335 321 324 326 326 325 325 332 333 334 333 332 328 322 316 311 309 306 303
295 290 287 293 289 294 295 290 293 290 293 294 292 292 294 293 292 296 294 295 296 294 294 297 297 294 293 293 293 293 293 293 294 294 294 294 294 295 295 295 296 297 298 300 302 302 303 304 305 307 309 316 330 337 338 339 340 341 342 342 342 340 338 340 339 338 340 340 338 337 337 336 338 339 338 337 338 339 338 336 332 332 332 331 323 333 334 333 329 326 321 315 313 311 308 304 303
295 296 292 291 290 294 295 292 291 292 290 292 289 294 297 294 294 294 294 294 296 295 294 291 292 293 292 292 293 292 292 292 292 292 293 293 293 294 295 296 297 298 299 300 300 302 303 304 306 306 307 313 322 335 337 337 339 339 339 340 341 342 342 339 339 339 339 340 339 337 336 336 337 336 336 336 336 336 335 332 331 330 332 332 329 328 328 327 323 322 321 317 311 307 305 304 304
296 291 292 290 291 295 295 291 291 290 292 292 293 294 293 293 294 291 293 296 292 291 292 292 292 292 292 292 291 291 291 291 291 291 292 292 292 293 294 294 295 296 298 299 301 302 304 307 308 310 309 312 322 333 337 336 337 338 339 339 338 340 341 340 339 337 337 338 338 336 336 336 334 335 334 335 334 334 333 331 328 327 328 328 327 328 326 324 323 323 322 317 309 307 304 304 304
293 296 291 295 291 294 292 296 290 289 292 292 292 291 294 293 293 292 293 290 291 292 292 292 292 292 292 291 291 290 290 290 291 292 292 292 292 293 293 293 295 296 298 299 300 302 305 307 311 313 312 313 324 331 335 335 335 337 335 336 339 336 333 334 335 336 336 335 334 338 335 335 334 333 333 333 334 333 333 332 331 328 327 324 323 325 323 322 322 321 319 314 311 309 307 306 305
295 292 291 293 290 292 290 290 290 289 290 292 291 293 293 292 292 291 293 290 291 291 291 291 291 291 291 290 290 290 290 291 291 291 292 293 293 294 294 294 295 296 297 298 300 302 304 307 313 315 317 319 326 330 333 333 334 335 334 335 336 332 338 337 337 334 333 330 331 333 333 333 333 332 332 331 329 330 329 328 328 329 328 324 322 323 323 321 320 319 318 315 311 310 308 308 306
293 294 291 290 290 289 290 289 289 289 290 289 292 291 291 290 292 293 291 291 291 291 290 290 290 290 290 290 290 290 290 290 291 291 291 292 293 292 293 293 294 295 296 298 299 301 303 306 313 315 317 321 326 329 329 330 331 332 332 333 334 332 337 338 335 335 331 330 330 329 328 331 332 330 328 326 328 327 326 324 323 324 325 325 324 323 320 320 319 317 315 314 311 308 309 306 306
292 292 291 292 292 289 291 291 290 289 290 289 293 292 291 291 292 291 289 291 291 290 289 289 289 289 289 289 289 290 289 289 290 291 291 292 292 292 292 293 293 294 296 297 298 300 302 307 312 314 316 318 324 326 327 328 329 330 328 330 331 331 333 332 332 332 332 331 328 329 331 330 328 328 326 325 326 326 325 325 325 325 325 323 323 322 318 318 317 318 317 314 311 310 311 304 306
290 292 290 290 288 291 289 289 290 291 294 288 292 291 290 290 292 291 289 290 290 289 288 288 288 288 288 289 289 289 289 290 290 290 289 290 290 291 292 292 292 294 295 296 298 300 304 307 311 314 315 318 319 319 320 322 322 321 321 322 321 321 320 321 321 321 320 323 323 325 326 326 324 326 326 324 324 325 324 324 324 323 322 319 320 319 317 314 315 315 315 314 313 313 308 305 304
290 290 292 288 289 293 290 292 290 290 293 289 290 292 291 289 290 289 289 290 289 288 288 287 287 287 288 288 289 289 289 290 290 289 289 290 291 291 291 292 292 293 296 296 297 301 303 305 310 313 315 316 317 317 317 318 318 318 317 317 317 317 318 317 317 317 317 317 318 319 320 322 324 324 323 322 320 323 322 322 322 321 320 320 320 317 314 313 314 313 311 309 309 310 309 305 303
290 289 288 291 288 289 291 289 290 292 293 287 291 290 288 289 290 289 289 290 289 289 288 287 287 287 287 287 288 288 289 289 289 289 289 290 290 291 291 292 293 293 294 296 298 299 301 303 308 312 313 314 314 315 316 316 316 315 315 315 314 314 314 313 313 313 314 314 315 315 317 317 319 320 321 321 320 319 318 318 318 317 316 315 314 314 314 313 313 314 311 311 309 312 312 309 308
293 289 286 286 286 287 290 289 289 294 291 288 292 290 288 287 291 288 288 289 290 288 288 287 286 286 287 287 287 288 288 288 288 288 289 289 290 291 291 292 292 293 294 295 296 298 300 301 306 310 311 312 313 313 312 311 311 311 310 310 309 310 309 310 310 310 310 311 311 312 313 314 315 317 318 319 317 317 316 315 314 313 313 313 314 313 313 312 312 311 310 312 309 310 308 304 306
284 288 286 281 286 285 287 291 289 292 292 289 293 288 290 291 290 288 287 289 288 287 287 287 285 286 286 286 287 287 287 288 288 288 289 289 289 290 290 291 291 292 292 293 295 298 299 300 303 307 308 308 308 308 308 307 306 305 305 305 304 305 304 304 304 305 305 307 307 308 309 310 312 313 314 316 315 315 314 312 311 311 312 312 312 311 311 310 310 309 308 309 310 308 307 307 303
281 287 285 284 284 284 288 291 285 288 289 290 292 290 286 289 290 288 288 288 287 287 286 285 286 285 286 286 286 286 287 287 288 288 288 288 289 289 289 290 291 291 292 293 293 296 297 298 300 302 303 305 305 305 305 304 304 303 302 301 301 301 301 301 301 301 302 302 302 303 304 305 308 310 310 311 311 311 311 310 310 311 311 311 309 309 307 307 308 307 303 302 305 306 304 304 304
285 283 285 283 285 286 287 288 290 289 290 291 288 289 288 291 289 288 288 287 287 287 286 285 286 286 286 286 286 286 286 286 286 287 287 288 288 289 289 290 291 291 292 292 293 294 295 297 298 300 302 303 304 304 303 302 302 301 300 299 299 297 297 297 297 298 298 298 299 299 301 302 303 305 307 308 308 308 309 309 309 309 310 309 308 307 306 306 306 307 304 301 302 304 303 302 301
282 285 284 286 283 284 287 287 292 290 289 291 288 288 289 291 288 287 287 287 286 286 286 286 285 285 286 285 285 285 285 285 286 287 287 287 287 288 288 289 290 290 290 291 292 293 295 296 297 297 299 300 302 302 302 302 300 299 298 298 297 296 295 295 295 295 295 296 296 297 297 298 300 301 303 304 303 304 305 306 307 308 308 308 307 305 304 305 305 305 306 303 300 299 300 298 297
284 285 285 283 286 287 285 288 288 289 290 290 288 290 293 294 291 287 287 287 286 286 286 285 285 285 285 285 285 285 285 285 287 287 287 287 287 287 288 288 289 290 289 290 292 292 293 295 296 296 296 298 299 300 300 298 298 298 297 296 295 294 294 293 293 293 293 293 294 295 295 296 298 299 300 301 301 301 301 301 302 304 305 305 304 303 303 303 303 302 300 302 301 298 295 296 296
285 284 283 284 286 287 287 286 288 287 289 289 291 290 289 291 292 287 287 287 286 286 285 285 285 285 285 285 285 285 285 285 287 287 286 286 287 287 287 288 288 289 289 289 290 291 291 292 294 293 295 296 297 297 297 297 296 295 294 293 292 292 292 292 292 292 292 292 293 293 294 294 295 296 297 298 298 298 298 298 299 300 301 301 300 300 301 301 302 302 300 298 300 300 297 296 296
287 285 285 286 284 287 287 290 288 286 290 285 284 286 287 288 289 286 287 287 286 285 285 285 284 285 285 284 285 285 285 286 286 286 286 286 286 286 287 287 288 287 288 288 288 289 290 291 291 292 294 295 295 295 295 294 294 293 292 291 291 291 291 290 290 290 290 291 291 291 292 293 294 294 295 296 296 296 296 296 296 297 298 298 297 298 297 297 298 299 301 301 299 297 294 295 296
285 286 284 284 285 285 287 287 286 286 288 288 284 286 289 290 287 285 285 285 285 285 285 285 285 284 284 285 284 284 285 285 285 285 285 285 285 286 286 286 286 286 287 287 288 289 289 290 290 291 292 294 294 295 294 293 294 294 293 292 291 289 290 290 290 290 290 289 289 290 290 291 292 292 293 293 294 294 294 295 294 295 295 296 296 295 296 296 296 297 298 298 298 298 296 297 296
285 283 284 284 284 286 285 287 285 287 287 285 283 285 289 289 282 284 284 284 284 284 284 283 285 285 284 284 284 284 284 284 284 284 284 284 284 284 285 285 285 286 286 286 286 287 288 289 289 290 291 292 293 294 293 293 292 292 292 291 291 291 289 289 289 288 288 288 287 288 288 289 290 290 291 292 292 292 292 293 293 294 294 294 294 294 294 294 294 295 296 296 298 296 296 295 296
284 285 284 284 285 285 287 287 286 284 286 284 285 285 286 287 287 286 283 285 283 283 283 283 284 284 284 284 284 284 284 284 284 284 284 284 283 284 283 284 285 285 285 285 285 285 286 287 288 289 289 290 291 292 293 293 292 291 291 291 291 289 289 288 287 286 286 286 286 286 286 287 288 288 289 289 290 290 291 291 292 292 292 293 293 293 292 292 293 294 295 295 295 296 294 294 295
283 284 287 287 286 286 284 285 288 283 284 284 285 282 279 281 281 283 283 282 283 283 283 282 284 284 284 284 284 284 284 284 283 283 283 283 283 283 284 284 284 284 284 284 285 285 285 286 287 288 289 289 290 290 291 291 291 291 291 289 287 285 284 284 283 283 284 284 284 285 286 286 286 286 287 287 288 288 288 289 290 290 290 291 292 292 292 292 292 292 292 294 294 295 294 294 294
285 287 286 288 286 285 285 284 286 281 280 285 282 282 278 282 284 283 282 282 282 283 282 283 283 283 283 284 284 284 283 284 284 283 283 283 283 283 283 283 283 283 284 284 284 284 285 285 286 287 287 288 289 289 290 289 288 287 286 286 285 284 283 283 284 285 284 284 285 284 284 285 285 285 285 286 286 287 287 287 287 288 288 288 289 290 290 290 291 291 292 292 292 293 294 292 291
284 285 284 285 285 285 285 285 286 282 282 284 283 282 279 278 286 282 281 282 282 282 283 283 283 283 283 283 283 283 284 283 283 283 283 283 283 282 282 282 282 283 283 284 284 284 284 284 285 285 286 286 287 288 288 288 286 286 285 285 284 284 283 283 284 284 284 284 284 284 284 284 284 284 284 285 285 285 286 285 286 286 286 286 287 287 287 288 289 290 290 290 291 291 292 291 291
285 285 284 285 286 285 283 285 284 282 283 282 281 283 282 278 282 282 282 284 284 284 283 283 283 283 283 283 284 283 283 284 283 283 283 283 283 283 282 282 282 282 283 283 283 283 284 284 284 284 284 285 285 286 286 286 286 285 285 284 283 284 284 283 284 284 283 284 283 283 283 283 283 283 283 284 284 284 284 284 285 285 285 285 285 286 286 287 287 287 287 287 288 288 289 290 290
286 282 283 282 282 282 283 282 282 281 280 277 280 283 279 279 281 282 282 283 284 285 283 283 283 283 283 283 283 283 283 283 283 283 283 283 283 282 282 282 282 282 282 283 283 283 283 284 284 283 283 284 284 284 285 285 285 285 284 284 283 282 283 283 283 282 283 283 282 282 282 282 283 282 283 283 283 283 283 283 283 283 283 284 284 284 284 285 285 285 286 286 286 286 287 288 287
284 284 285 283 281 280 279 279 277 277 273 278 281 283 284 279 282 284 284 285 285 282 281 283 282 283 283 283 283 284 283 283 283 283 282 282 282 282 281 281 281 282 282 282 282 282 282 283 282 282 282 283 283 284 284 284 284 284 283 283 283 282 282 283 282 282 282 282 281 281 282 282 282 282 282 282 282 282 282 282 282 282 283 283 283 283 283 283 284 284 284 285 285 285 285 286 286
285 285 281 285 283 279 277 270 276 274 272 274 277 280 282 278 280 283 284 282 282 284 283 283 283 283 283 283 283 283 283 283 283 282 282 282 282 282 281 281 281 281 281 281 281 282 282 282 282 282 282 282 283 283 283 283 283 283 283 283 282 282 282 282 281 281 281 281 281 281 281 281 281 281 281 281 281 281 282 281 281 281 281 281 281 282 282 282 283 283 283 283 284 284 285 284 285
284 283 286 280 272 270 273 271 273 273 275 277 279 279 280 281 284 281 282 285 282 282 284 285 284 284 284 284 284 283 283 282 282 282 282 282 282 281 281 281 281 281 281 281 281 281 281 282 282 282 281 282 282 283 282 283 283 283 283 282 282 282 282 282 281 281 281 281 281 281 280 280 280 280 280 280 280 280 281 280 280 280 280 281 281 281 281 281 281 281 282 282 282 282 282 283 283
283 285 282 277 272 272 267 267 265 270 275 277 278 279 279 281 282 288 287 284 283 282 281 282 284 284 284 284 284 283 283 283 283 282 282 282 282 281 281 280 280 281 281 281 282 282 281 281 282 282 281 282 282 282 282 282 282 282 282 282 282 282 282 282 281 281 281 281 281 281 280 280 280 279 279 279 280 280 280 280 280 280 280 281 281 280 280 281 281 281 281 280 281 282 282 282 282
284 283 285 282 276 270 270 267 274 275 275 276 276 276 274 278 284 279 280 280 280 280 280 281 282 283 284 283 283 283 282 282 282 282 282 282 282 282 281 281 281 280 280 281 281 281 281 281 281 281 281 281 282 282 282 282 282 282 282 282 282 282 282 282 281 282 282 281 281 281 280 280 280 280 280 280 280 280 280 280 280 280 280 280 280 280 280 280 280 280 280 280 280 281 280 281 281
281 282 283 280 282 280 277 271 270 268 271 272 273 277 279 284 280 278 279 279 280 280 280 281 281 282 283 282 282 282 283 283 282 282 282 282 282 282 281 281 281 280 280 281 281 281 281 281 281 281 281 281 282 282 281 281 281 282 282 282 282 282 282 282 282 282 281 281 281 280 280 280 280 280 280 280 280 280 280 279 280 279 280 280 280 280 279 280 280 279 279 279 279 281 279 279 280
283 284 280 283 284 280 273 273 274 272 271 276 270 277 281 281 283 281 280 281 281 280 280 280 281 282 282 283 283 283 283 283 283 282 282 282 281 281 281 281 280 280 280 281 281 281 281 281 281 281 281 281 281 281 281 281 281 281 281 281 281 282 282 281 281 281 280 280 281 281 280 280 280 280 280 280 280 280 279 279 279 279 279 279 279 279 279 279 279 278 278 278 278 279 279 279 279
284 279 284 284 284 282 280 276 270 265 272 275 274 277 279 282 279 281 281 281 283 280 279 281 281 281 281 283 283 283 283 283 283 283 282 282 282 282 281 281 280 280 280 280 281 281 281 281 281 281 281 280 281 281 281 281 281 280 281 281 281 281 281 281 281 281 281 280 280 280 280 280 280 280 280 280 279 279 278 278 278 278 278 278 278 278 278 278 278 278 278 278 278 278 278 278 278
284 282 286 287 278 279 280 274 274 270 269 271 275 277 279 281 283 281 282 282 285 282 279 279 280 280 282 283 283 283 283 283 282 282 282 281 282 282 281 280 280 280 281 280 281 281 281 281 281 281 281 281 281 281 281 281 281 281 281 280 280 280 280 280 280 280 280 280 280 280 279 279 279 279 279 279 278 278 277 277 277 277 277 277 277 277 277 277 277 277 277 277 277 277 277 276 277
287 287 285 285 282 277 276 280 275 275 272 272 275 278 280 281 283 283 285 285 286 282 279 280 281 282 282 283 284 283 283 283 283 282 282 282 282 282 281 280 280 280 280 280 281 281 281 281 281 281 281 281 280 280 280 280 280 281 280 280 280 280 280 280 280 279 279 279 279 279 279 279 279 279 278 278 278 278 277 277 277 277 277 277 277 277 277 277 277 277 276 276 277 276 276 276 276
283 284 282 284 280 283 281 280 278 277 270 271 273 277 278 283 281 284 286 286 285 283 283 282 282 282 283 284 284 284 284 284 283 282 282 282 282 281 281 280 281 281 281 281 281 281 281 281 280 281 280 280 280 279 279 279 279 279 279 279 278 278 278 278 278 278 278 278 279 279 279 279 278 278 278 278 277 277 277 277 277 277 276 276 276 276 277 276 276 276 276 276 276 276 275 275 276
287 287 284 286 282 280 278 279 280 274 276 275 273 278 281 284 280 281 282 281 282 284 284 284 283 283 283 283 283 284 284 283 282 282 282 282 282 281 281 281 281 281 281 281 281 280 280 280 280 280 280 280 280 279 279 279 279 279 279 278 278 278 278 278 278 278 278 278 278 278 278 278 278 278 278 277 277 277 277 277 276 276 276 276 276 276 276 276 275 275 275 275 275 275 275 275 275
Wind_Speed
5 5 3 2 3 2 2 7 2 3 4 1 1 1 0 1 2 4 2 4 0 1 2 3 3 1 1 1 1 4 2 4 4 5 2 1 2 3 5 8 4 1 6 6 6 5 6 6 8 8 11 8 8 9 11 11 11 12 12 12 11 10 10 9 9 9 7 7 8 8 8 8 8 8 8 8 8 7 8 9 8 9 9 10 11 11 11 11 12 13 13 13 12 12 12 12 11
3 4 4 1 1 1 1 1 5 3 6 3 0 1 1 4 1 2 3 1 1 0 2 3 2 1 1 1 3 2 1 6 7 0 5 3 2 3 5 8 3 4 7 6 6 5 5 5 8 8 11 9 7 8 9 11 11 11 11 11 11 10 9 9 9 8 9 8 8 8 8 7 7 7 7 7 7 7 7 8 8 7 8 9 10 11 11 11 11 13 13 13 13 13 12 12 11
4 5 1 3 3 5 3 4 0 2 5 3 2 5 2 0 1 1 5 2 2 3 5 2 2 1 1 0 1 2 0 1 3 3 4 3 1 4 1 5 3 3 6 6 5 6 5 4 7 9 9 11 8 8 10 11 11 10 10 11 10 10 10 9 8 7 8 8 8 8 8 8 8 7 7 7 6 6 6 7 7 7 8 9 10 11 11 11 12 13 12 12 12 12 11 11 11
3 6 1 3 1 3 1 5 5 5 4 3 1 2 1 1 2 5 5 7 7 4 1 1 1 0 1 2 1 0 3 1 4 2 1 3 2 4 2 4 3 3 4 5 5 5 6 4 5 7 9 9 9 9 10 11 11 11 10 10 10 10 9 9 9 8 7 8 8 8 8 8 8 7 7 6 6 6 5 5 6 6 8 7 9 10 11 11 11 11 11 12 12 12 11 11 10
2 3 3 3 4 2 4 2 5 3 3 5 3 4 5 5 4 3 2 2 7 3 0 0 1 1 0 0 1 1 1 2 2 1 2 2 2 4 2 4 5 6 5 6 5 6 6 5 4 5 7 9 10 8 9 9 11 11 11 10 10 9 8 8 8 8 8 7 7 7 7 7 7 7 7 6 6 6 5 4 6 7 7 7 7 9 10 11 10 9 10 11 11 11 10 10 10
5 2 4 2 1 3 4 3 5 4 2 5 2 1 2 5 3 1 8 7 1 3 1 1 0 1 0 0 3 0 1 3 1 3 1 0 6 4 3 5 6 6 5 4 5 5 4 6 5 6 6 9 10 9 9 9 11 10 11 11 10 9 8 7 7 7 8 8 6 7 7 7 7 7 6 6 6 6 4 5 6 7 6 7 6 7 9 8 7 6 8 9 10 10 10 10 9
1 3 5 3 3 4 4 5 3 3 0 4 0 1 2 2 7 4 5 2 1 1 1 1 1 0 1 3 1 4 1 1 1 2 2 7 7 1 4 5 6 7 5 5 5 5 6 7 8 8 6 9 10 9 10 10 11 10 10 10 9 9 8 7 6 6 7 7 7 6 6 6 6 7 6 6 5 5 4 5 6 7 7 6 4 5 6 8 6 6 8 9 10 11 10 10 9
2 1 2 2 1 4 4 3 2 4 1 5 1 3 3 2 1 1 2 1 2 1 1 2 1 2 0 2 2 1 3 3 3 6 7 4 2 2 3 5 7 6 7 4 4 5 6 8 8 8 6 7 9 8 9 10 10 11 11 10 9 9 8 7 6 7 7 7 7 7 7 7 5 5 6 5 5 5 4 5 6 8 7 4 7 9 9 9 12 11 9 9 11 11 11 10 9
6 7 1 4 3 4 3 2 1 3 6 3 6 6 5 4 4 1 1 2 1 2 4 1 1 2 1 4 1 3 3 2 5 3 4 4 4 3 2 2 4 6 6 4 3 3 5 6 7 7 6 6 8 8 10 10 10 11 11 10 9 8 9 7 8 6 6 7 7 7 6 6 5 5 5 5 5 5 5 5 7 8 6 7 9 10 10 9 7 7 9 10 10 11 10 10 9
2 2 1 3 3 2 3 1 2 3 2 2 2 1 1 2 1 1 0 1 0 3 1 0 1 2 1 2 3 3 5 10 6 4 9 7 5 4 5 5 3 3 4 2 1 2 3 3 5 5 5 4 7 8 9 9 9 9 10 10 9 9 8 6 7 7 7 6 7 6 6 5 4 5 6 6 5 5 6 7 8 8 7 7 8 8 7 6 7 9 9 9 10 10 10 10 9
1 5 3 4 5 2 3 3 4 3 2 6 6 8 8 3 2 0 2 2 2 1 7 4 1 1 0 1 1 2 4 8 11 8 9 8 4 5 4 2 3 4 3 2 1 1 0 2 4 4 4 4 4 6 7 8 8 9 9 9 9 8 7 6 5 6 5 7 7 6 6 6 5 6 6 6 7 6 6 8 9 8 8 8 8 7 5 5 5 9 8 10 10 9 9 9 9
1 3 3 4 3 5 4 3 2 5 7 3 1 1 2 4 2 1 0 2 1 3 3 1 1 2 1 1 1 1 7 12 8 7 8 6 4 4 3 2 4 4 4 3 2 1 1 1 3 4 4 3 3 5 7 7 7 7 7 7 6 6 5 6 6 5 5 5 6 6 6 3 5 6 6 7 6 6 6 7 7 7 7 8 7 5 4 5 9 9 10 9 9 9 9 9 8
5 1 6 6 1 0 2 1 1 3 4 1 1 1 2 2 0 2 1 3 1 3 2 4 0 1 2 1 1 5 10 8 10 7 7 5 4 3 5 5 4 5 3 4 3 2 1 0 2 4 5 4 3 4 7 8 7 7 8 8 6 6 6 5 5 5 4 4 3 3 2 1 4 4 6 5 5 4 6 6 5 5 6 6 6 6 8 10 10 10 9 8 8 8 9 8 8
4 5 3 2 2 2 3 0 1 3 1 1 4 2 1 0 1 2 5 1 2 1 1 1 1 1 0 1 2 4 5 9 12 9 5 4 4 6 8 6 7 6 6 3 3 2 1 1 1 3 4 4 4 3 5 8 9 8 7 8 6 6 6 6 5 5 5 4 4 2 2 3 4 3 4 4 5 5 3 4 3 4 4 5 7 8 10 9 9 9 9 8 8 9 9 8 8
2 2 6 5 2 0 2 2 2 5 2 1 0 2 3 2 2 4 0 0 2 2 3 1 1 1 2 1 5 2 8 14 12 10 5 5 6 7 8 7 8 9 8 7 5 4 3 1 1 2 4 5 6 5 4 5 8 9 8 7 7 7 6 7 5 5 4 2 2 5 4 4 4 4 4 2 4 4 4 3 4 5 6 5 6 8 10 10 9 8 8 8 8 9 9 8 8
5 5 5 3 0 3 2 3 1 3 2 2 2 1 1 1 1 1 2 2 3 0 4 0 1 1 0 1 1 7 11 13 12 7 6 11 10 7 7 9 7 6 6 9 8 7 5 2 1 2 4 5 5 6 4 5 6 9 9 8 9 8 7 7 7 5 4 4 5 5 5 3 4 4 5 2 3 4 4 4 6 5 5 5 6 12 11 9 8 8 8 8 9 9 9 9 8
2 3 2 3 1 2 2 2 5 2 2 2 4 1 1 1 0 4 0 0 3 2 5 1 0 3 2 3 4 8 9 8 7 8 12 10 8 7 7 9 8 6 7 7 7 7 9 7 3 2 5 5 5 6 5 5 4 6 6 10 9 9 9 8 7 6 6 6 6 6 5 2 2 4 4 3 5 4 4 6 4 3 3 5 7 12 11 10 8 8 8 8 9 9 9 8 8
1 3 4 2 1 2 5 5 9 0 1 1 3 0 3 1 4 0 2 2 3 4 3 6 4 7 7 3 3 4 5 9 11 12 9 8 7 7 7 7 8 7 7 7 7 8 8 7 9 6 4 6 7 6 5 5 5 5 6 4 5 7 7 7 6 5 6 4 5 5 3 3 3 3 3 4 2 4 4 5 4 6 5 7 9 10 11 11 10 9 8 8 8 8 7 4 3
5 2 2 1 5 1 7 3 7 2 2 1 0 1 1 1 1 2 3 4 4 4 4 4 2 4 4 8 9 9 9 12 11 12 12 12 9 9 7 6 7 8 8 8 7 8 6 6 6 7 8 5 6 6 5 5 6 5 4 5 5 3 5 6 4 5 4 4 5 4 4 4 4 4 4 3 4 4 3 6 6 4 6 5 3 6 11 12 12 9 9 8 8 6 4 2 2
1 2 0 1 7 3 6 4 2 4 2 1 1 1 0 1 0 2 1 6 4 2 1 2 1 3 7 8 9 9 9 10 12 11 11 10 9 8 8 8 7 7 7 6 8 6 6 6 7 6 6 8 6 6 4 4 5 5 4 3 3 6 6 3 4 5 4 5 4 4 4 4 4 3 5 7 5 5 4 5 2 6 10 7 4 5 10 11 13 12 10 9 4 2 2 2 2
1 3 2 1 4 1 1 7 7 6 2 1 1 0 2 2 6 0 2 4 6 1 4 0 4 6 4 5 6 8 10 11 11 11 11 10 8 6 5 5 5 6 6 7 5 7 8 7 7 6 7 6 6 6 5 4 3 4 5 6 4 2 2 6 7 5 6 6 6 6 5 4 4 4 4 3 4 4 4 3 5 4 4 4 4 3 4 6 6 5 4 4 3 3 2 1 1
3 0 2 5 3 0 2 6 3 2 3 3 1 1 2 0 0 2 4 3 7 0 3 4 5 3 4 6 6 7 10 11 11 12 11 10 9 9 8 6 4 3 5 5 7 8 8 7 6 6 5 5 5 4 5 3 4 3 3 4 6 5 5 3 3 3 4 4 5 6 6 6 6 6 6 5 6 5 4 3 2 1 2 4 6 6 5 4 3 4 5 4 3 2 3 2 1
1 1 1 4 4 1 1 2 3 4 1 1 1 2 1 0 2 3 5 5 1 2 2 4 4 4 3 4 6 8 10 10 10 11 10 11 10 10 9 7 8 8 7 7 7 6 7 8 7 6 5 4 3 5 3 2 3 3 3 2 3 5 8 8 4 4 3 3 5 4 3 4 5 5 5 6 5 4 3 4 5 4 2 1 2 5 4 3 4 4 3 3 3 4 3 2 2
3 1 0 1 6 4 3 1 3 3 5 4 3 2 1 1 4 1 3 3 3 4 3 5 6 6 4 6 8 8 7 7 7 7 6 7 7 8 8 8 8 6 5 7 7 7 7 10 8 6 3 2 2 3 3 1 2 3 2 5 7 4 2 2 1 1 1 2 3 3 5 4 4 5 4 4 6 5 4 3 3 4 6 4 1 2 5 3 3 3 3 3 4 3 3 2 2
1 2 1 0 2 5 3 3 3 4 7 3 1 1 4 7 2 2 0 4 3 3 4 5 5 5 7 9 9 8 8 8 8 6 5 5 5 5 5 5 7 7 8 9 8 9 9 8 8 7 3 3 3 2 3 3 3 3 3 3 3 5 4 3 2 3 4 2 2 0 4 4 3 3 5 5 3 1 1 2 2 1 2 3 3 3 2 5 3 3 2 3 3 3 2 2 1
3 1 0 1 3 4 4 4 7 7 3 3 1 4 4 7 2 0 4 4 3 3 6 6 4 9 9 8 8 8 8 8 6 7 7 5 5 8 10 8 7 9 9 8 8 8 8 10 9 8 5 2 4 3 4 5 4 4 4 4 1 3 5 6 3 1 2 2 2 1 2 3 4 4 2 1 3 4 3 2 3 2 1 2 3 4 3 4 4 3 3 3 4 3 2 2 1
2 0 1 2 5 6 2 2 2 1 3 4 2 1 1 0 2 4 2 5 4 6 8 7 7 9 7 6 6 7 8 9 8 6 6 6 7 8 8 7 8 7 7 8 8 8 7 9 9 9 7 4 3 5 5 5 5 4 4 3 5 4 2 4 6 6 6 6 4 0 2 4 3 3 4 3 3 2 2 2 1 1 2 0 1 1 1 1 1 3 4 6 6 4 3 2 1
3 0 3 3 7 5 6 4 7 1 1 4 4 1 1 1 1 3 5 6 3 8 7 8 8 6 5 6 7 6 6 6 6 6 10 11 8 8 8 7 8 7 7 8 7 7 7 9 8 10 8 7 8 8 7 8 8 8 7 7 8 7 9 8 8 7 8 7 9 9 8 7 5 1 3 4 3 2 2 2 1 1 2 3 2 2 1 2 1 2 0 1 3 3 3 3 2
0 2 4 6 8 6 3 1 2 1 1 2 5 0 1 1 2 1 3 4 5 8 7 6 6 5 5 5 5 6 6 6 7 8 8 7 7 6 8 7 7 7 5 6 7 6 9 7 7 9 8 9 10 10 9 9 9 9 9 9 8 8 9 8 8 8 7 7 9 8 8 8 7 6 6 5 3 3 3 2 1 3 4 3 2 2 3 3 2 2 2 2 2 1 3 3 2
0 3 1 7 6 6 4 1 3 2 1 2 0 4 4 2 2 2 3 6 4 7 6 5 4 4 4 4 4 5 6 6 8 8 7 7 8 8 8 9 9 7 6 6 7 8 6 5 5 6 9 10 10 9 9 9 9 9 8 7 8 9 8 9 9 8 8 8 8 8 8 8 6 7 7 7 6 6 6 5 4 4 4 4 4 4 3 3 2 2 2 2 2 0 0 1 1
1 1 3 1 5 4 2 2 4 2 1 1 1 3 5 4 1 4 2 5 2 3 3 4 4 4 4 4 4 5 6 5 6 7 8 8 7 7 8 8 9 9 6 7 8 8 8 7 6 6 9 10 12 12 11 10 10 9 8 8 9 8 8 8 8 7 7 8 9 10 9 9 7 8 7 6 7 6 6 5 6 5 4 4 4 3 3 4 4 4 3 3 2 2 3 3 3
3 2 4 3 2 5 9 2 1 2 2 4 2 1 5 5 4 5 3 4 3 4 2 2 3 4 4 4 4 4 4 4 5 6 7 7 7 7 8 9 9 9 9 8 7 7 8 8 8 10 10 11 10 10 9 9 10 10 9 9 9 9 9 9 9 9 9 8 10 10 10 10 11 11 10 8 7 7 6 6 5 4 4 6 5 5 6 5 4 4 4 4 3 3 2 2 2
5 2 4 3 1 5 8 0 1 2 0 3 2 5 4 1 4 5 5 3 3 5 3 1 2 3 3 3 3 4 5 6 6 7 8 7 6 6 7 8 9 9 8 9 8 7 8 9 8 9 10 9 9 11 11 11 11 11 11 10 10 10 10 10 9 8 8 9 9 9 10 10 10 10 11 10 8 8 8 7 6 5 5 6 6 4 4 3 4 5 5 5 4 3 4 4 3
4 2 4 3 3 2 2 4 1 2 1 2 4 1 6 1 5 4 5 2 5 5 5 2 2 2 2 3 4 5 6 5 7 7 8 7 6 7 6 6 8 8 8 8 7 6 7 7 7 7 7 7 7 8 10 10 9 10 10 10 11 12 10 8 7 7 9 8 8 8 9 10 11 12 10 9 8 8 8 8 8 8 8 6 5 4 5 4 4 4 4 3 3 4 3 4 3
4 3 2 6 2 5 6 1 1 1 2 1 2 2 11 8 6 3 4 3 4 6 5 3 2 2 3 4 4 6 5 5 6 6 7 7 8 7 6 6 7 7 6 8 7 7 7 7 6 8 8 7 7 8 8 8 10 11 9 10 11 10 9 8 7 9 9 8 9 9 10 9 9 10 9 8 8 8 8 9 9 9 7 6 6 6 7 6 4 4 4 3 4 5 3 2 2
5 9 6 3 3 4 4 5 3 1 3 4 3 7 10 11 4 2 4 4 3 3 2 3 3 3 4 4 4 4 4 5 4 5 6 6 6 7 6 6 5 5 6 6 8 8 8 7 6 7 8 6 5 7 6 8 8 7 8 8 10 9 8 8 10 9 8 9 8 9 9 9 9 9 8 8 9 8 8 9 9 9 8 7 8 8 6 5 5 5 6 4 3 3 3 4 3
5 4 4 5 6 7 1 2 1 1 1 7 9 8 9 11 10 2 1 3 3 2 1 3 3 3 4 4 3 3 4 3 5 5 6 7 7 7 6 6 6 5 7 8 8 9 8 7 7 10 7 6 5 6 6 6 7 8 9 10 8 6 8 8 10 9 10 9 9 10 10 9 9 9 9 9 10 10 9 9 8 8 8 8 8 8 6 6 5 4 3 5 6 7 6 5 4
3 3 4 6 4 8 3 0 2 2 2 3 2 1 9 12 7 2 2 1 2 1 1 1 2 2 2 3 3 4 3 2 6 7 9 8 7 9 7 6 7 8 8 8 9 8 7 7 9 6 5 6 8 7 7 9 7 7 9 7 8 7 7 9 9 9 9 8 11 10 9 9 10 10 9 9 9 9 8 8 8 8 7 7 7 6 7 7 8 8 4 4 4 5 4 4 5
2 3 3 2 7 4 8 1 2 2 3 8 3 4 10 10 4 0 1 2 1 1 2 2 4 2 2 2 3 3 3 4 4 5 6 7 8 8 7 7 6 6 5 8 7 7 8 7 6 5 6 7 7 6 7 8 6 6 7 5 6 8 7 7 8 7 8 10 11 11 10 10 10 10 10 10 9 9 8 8 8 7 8 6 7 8 8 9 8 8 8 5 4 4 4 4 6
4 2 2 8 3 2 5 1 1 0 2 2 2 6 11 7 2 1 2 2 2 1 3 4 3 4 2 1 0 1 2 2 4 4 5 6 6 6 7 7 7 6 6 7 8 7 5 6 6 6 7 7 7 7 9 9 10 10 10 9 9 8 7 6 8 8 9 11 12 10 10 9 10 10 10 10 9 9 9 9 7 8 8 8 7 8 9 9 8 8 7 7 3 6 5 6 7
3 6 5 4 3 5 7 4 0 0 0 1 0 5 9 6 5 4 1 1 3 1 3 4 2 2 2 2 2 1 2 1 2 3 4 5 6 7 6 6 5 6 7 7 7 6 4 6 6 6 6 6 5 6 7 7 8 8 7 8 6 7 7 7 8 10 9 9 10 11 10 10 11 10 10 11 10 10 10 9 9 8 9 9 8 8 8 8 8 7 8 7 8 5 5 4 6
2 7 11 8 6 7 4 2 2 6 3 1 3 2 4 4 7 7 3 2 1 0 2 2 2 1 2 3 3 1 1 2 1 1 2 2 3 4 6 6 7 6 7 6 5 5 5 5 6 6 6 6 6 6 4 4 5 6 5 6 8 8 10 9 10 8 8 9 9 7 10 11 10 11 10 10 11 10 10 10 10 10 10 9 8 8 7 8 10 9 8 7 8 8 4 5 6
1 6 10 12 7 4 3 2 4 2 2 0 0 6 5 7 7 3 3 3 4 2 3 5 3 4 3 4 4 2 2 3 2 2 2 3 4 4 5 6 5 6 6 5 5 6 5 5 5 5 6 6 6 6 5 5 8 8 10 10 9 8 11 6 5 5 6 6 6 9 8 10 10 10 11 10 10 10 10 10 10 9 9 9 8 8 9 9 8 8 7 8 7 6 6 7 7
4 2 4 4 5 6 7 6 7 4 1 2 0 2 3 5 11 3 1 2 7 7 7 6 6 5 6 6 5 4 3 3 2 2 1 2 2 2 3 3 4 4 4 4 5 5 6 6 6 6 5 6 6 5 7 5 8 8 10 10 8 8 9 9 6 6 5 5 8 8 8 8 9 9 9 10 10 10 9 10 9 9 9 9 8 8 8 7 7 7 8 8 7 7 7 6 6
3 0 5 6 7 6 6 6 4 1 1 8 2 0 1 5 8 3 0 5 6 12 9 9 8 7 7 7 6 5 5 4 4 4 3 2 1 2 2 3 3 4 5 5 5 5 5 5 6 7 8 7 6 8 8 8 7 7 8 8 11 7 8 7 6 5 6 5 10 7 8 7 8 9 10 9 10 10 10 9 9 10 10 9 8 8 8 8 9 9 10 9 8 7 7 6 6
1 7 7 7 7 7 4 4 4 1 1 7 5 4 3 6 5 4 3 2 11 7 7 11 11 10 9 8 7 6 5 4 4 3 2 1 1 1 2 1 5 4 4 4 5 5 5 5 7 9 9 7 6 8 8 9 8 6 9 8 12 8 6 6 6 7 6 5 9 8 7 7 7 8 9 9 10 10 10 10 9 10 10 9 8 9 8 9 9 9 8 8 8 8 6 6 6
7 4 7 5 7 4 3 5 3 3 3 7 9 9 6 5 4 8 6 8 5 3 1 3 5 7 9 8 8 7 6 5 5 4 2 2 1 1 3 5 3 4 4 5 5 5 5 5 5 10 8 6 6 7 7 9 7 6 8 9 10 10 8 7 8 7 5 6 7 7 7 7 7 7 7 8 9 8 9 9 9 8 8 8 8 9 8 7 7 7 6 8 9 9 6 6 6
4 2 4 4 2 5 3 3 4 1 6 6 2 4 3 8 5 7 7 2 5 9 8 12 11 13 12 9 8 8 7 7 6 5 5 4 4 4 5 5 4 4 5 5 5 5 5 4 5 11 8 7 6 6 8 8 7 8 8 9 10 8 8 7 9 8 6 7 6 6 5 6 7 6 7 7 8 8 7 7 7 8 8 8 8 7 7 7 6 6 6 6 6 7 7 6 6
2 5 6 6 3 4 3 1 3 6 6 0 2 1 1 10 7 4 4 9 7 8 4 10 14 12 10 9 9 8 7 7 7 6 6 5 6 6 6 5 5 5 5 5 5 5 5 5 5 11 9 6 6 6 8 8 8 8 7 8 8 7 8 9 8 8 5 6 5 6 6 7 5 7 7 7 8 8 7 8 8 8 7 8 7 7 7 7 6 6 7 7 7 9 7 6 6
4 7 7 6 1 1 3 4 2 6 5 3 1 0 4 2 7 12 12 5 3 4 4 2 4 10 12 11 9 8 7 8 7 7 6 6 6 6 5 5 5 4 4 5 5 5 5 6 6 10 8 6 6 7 8 9 9 8 7 7 7 7 8 7 6 7 6 5 5 6 6 6 7 7 6 7 5 5 6 6 6 6 6 6 7 7 6 6 6 6 6 7 7 6 6 6 6
9 2 7 7 7 6 5 4 4 4 3 1 3 1 6 5 5 7 2 3 5 4 3 3 3 3 4 4 6 7 8 8 7 7 7 7 7 7 6 6 5 5 5 4 5 5 5 6 7 9 9 6 7 7 7 9 7 7 7 6 6 6 6 6 6 5 5 6 5 6 6 5 7 5 6 4 5 6 6 6 6 6 6 6 6 6 5 5 5 5 5 5 5 5 6 5 5
1 3 5 5 7 5 2 3 2 1 2 3 1 6 4 3 2 4 3 4 3 3 2 2 3 4 7 7 9 10 9 9 8 8 8 7 6 6 6 6 5 5 5 5 5 5 6 6 6 7 8 7 7 8 8 7 7 6 6 7 6 6 5 5 6 5 5 5 5 6 6 6 5 5 4 5 5 5 6 6 6 6 6 6 6 6 6 6 6 6 5 5 6 4 5 6 6
5 6 6 7 2 5 5 1 1 1 3 10 3 6 5 5 3 2 5 4 3 2 2 2 6 7 8 10 10 11 10 9 9 9 8 8 6 6 7 7 6 6 5 6 6 5 6 7 8 8 7 7 7 7 7 6 6 7 6 6 6 6 7 7 6 6 6 5 5 5 6 5 5 5 4 4 5 5 5 5 5 5 6 5 5 5 5 5 4 4 4 5 5 5 5 5 5
9 3 8 2 2 3 4 3 1 2 4 7 4 7 2 3 5 1 2 4 8 3 3 4 6 7 11 12 11 13 12 10 8 7 7 7 8 9 7 6 6 7 7 6 6 5 5 6 8 9 8 9 7 7 7 7 7 7 7 6 6 6 6 6 6 6 5 6 6 5 5 5 5 4 4 3 4 4 4 4 4 4 4 4 5 4 4 4 3 3 3 3 4 3 3 3 3
5 4 3 7 3 2 1 3 4 1 4 6 5 3 6 9 7 2 6 7 11 7 5 5 8 10 13 12 13 11 7 8 10 10 8 8 8 8 8 8 7 7 6 6 6 6 5 6 6 7 9 8 8 7 6 5 6 5 5 6 7 7 6 6 6 6 5 7 6 5 5 4 3 3 3 3 3 4 4 4 4 4 4 4 4 4 4 4 5 4 4 4 4 4 5 5 4
1 2 3 1 2 1 5 7 3 5 4 0 7 6 7 7 7 14 11 14 12 6 8 12 14 15 12 13 14 14 14 14 12 9 8 8 9 9 9 9 9 9 8 7 7 6 7 6 7 7 6 6 7 8 7 8 6 7 7 6 5 5 5 6 5 6 5 5 5 5 4 5 4 3 3 4 4 5 4 5 4 4 5 5 6 6 6 6 6 5 6 6 6 6 6 7 6
2 3 4 1 0 2 3 1 4 4 4 4 3 10 1 4 4 11 11 12 11 13 15 13 12 13 13 12 12 13 14 12 9 8 8 9 9 7 7 8 7 6 6 6 6 8 7 6 7 8 10 9 8 8 7 7 7 7 8 8 7 6 6 5 6 5 6 5 5 4 4 4 3 4 3 4 4 4 4 4 5 5 5 5 6 6 5 5 5 5 5 5 6 6 7 6 6
12 14 12 13 9 4 3 9 3 1 3 5 3 13 1 4 2 3 2 0 3 8 8 9 9 10 11 10 9 10 11 8 7 7 9 8 8 8 7 6 6 7 7 8 7 7 7 8 8 8 7 8 9 8 8 8 7 7 8 7 6 5 5 5 6 6 6 5 4 4 4 3 5 3 3 4 4 3 3 4 4 4 4 4 4 4 5 4 5 5 5 4 5 6 6 6 6
Wind_Direction
356 352 337 45 60 91 54 0 136 340 58 35 324 29 116 15 282 351 278 332 356 242 200 303 203 207 255 184 189 193 204 98 208 99 90 242 218 240 207 210 249 196 170 161 178 183 188 191 178 170 162 171 167 156 158 157 155 147 144 143 145 145 145 145 141 136 138 131 129 125 121 118 111 106 99 92 83 75 67 63 62 70 81 92 93 87 84 78 79 77 69 65 60 51 45 43 42
12 357 39 3 23 44 305 173 97 350 44 81 180 103 253 291 354 220 72 140 207 268 256 236 281 254 74 76 166 150 257 232 177 208 271 229 -0 277 227 212 209 183 173 159 169 180 178 184 177 170 158 170 169 153 157 159 154 149 147 146 147 148 148 148 146 148 143 142 137 133 129 123 118 112 105 98 83 71 66 62 63 77 90 92 88 88 81 74 69 71 67 59 55 50 43 40 39
11 11 3 30 33 66 97 24 57 23 83 67 280 205 337 297 222 254 222 213 222 269 310 285 183 265 78 293 20 127 118 269 297 266 244 297 113 1 253 207 186 179 171 162 161 172 180 180 174 170 160 168 166 156 159 161 156 150 150 150 153 156 154 153 150 146 148 148 146 143 138 130 127 123 117 106 89 76 64 61 64 79 92 92 94 84 75 67 64 66 64 58 51 48 45 42 37
86 29 112 66 257 28 50 31 85 122 104 174 312 292 191 175 261 230 258 259 273 313 299 224 142 213 135 17 236 42 299 347 194 154 340 27 348 316 302 175 152 141 144 161 160 163 177 178 181 167 168 166 168 158 164 161 160 156 155 156 158 158 160 162 153 150 154 157 154 146 145 140 132 132 126 116 102 91 78 72 78 91 93 98 87 80 78 71 62 60 61 60 54 48 45 44 42
61 358 65 109 112 358 101 93 121 101 102 204 100 260 256 220 279 294 281 283 284 195 109 173 102 310 180 129 148 100 53 261 338 179 259 256 313 285 198 157 144 147 148 161 154 164 170 161 183 176 166 166 172 157 165 163 167 160 159 162 163 164 164 168 160 155 158 162 159 152 148 142 137 131 122 118 109 101 93 91 92 91 94 92 89 83 82 74 67 65 59 59 57 54 51 48 45
63 34 7 84 64 166 69 65 52 72 219 157 92 353 242 233 223 303 283 306 284 262 219 86 101 9 339 295 192 15 228 33 282 298 319 238 342 343 154 150 143 147 150 153 153 154 157 166 173 184 171 165 176 165 162 169 170 167 165 167 168 167 170 168 162 160 162 158 168 157 156 149 143 141 137 128 122 118 108 105 108 107 112 110 89 84 81 77 70 39 45 63 56 55 52 51 47
277 49 357 35 47 46 148 114 137 156 106 169 212 252 265 280 230 344 328 10 216 147 347 337 55 331 75 320 1 234 228 264 6 313 184 314 322 98 151 145 141 149 155 159 159 155 163 168 181 185 174 170 176 165 169 175 175 172 171 173 170 171 174 172 161 167 166 163 161 164 161 160 158 152 142 134 128 126 127 121 119 119 115 98 103 73 51 51 32 59 60 56 54 51 49 48 47
66 136 319 105 353 44 46 144 146 182 55 185 264 244 268 238 175 177 289 111 330 75 349 261 329 112 273 52 81 293 351 187 296 295 300 305 321 72 152 148 139 155 162 159 165 165 165 170 186 185 182 175 171 168 170 179 182 178 175 177 174 175 181 172 166 178 175 173 168 175 176 168 169 156 145 144 141 130 133 129 126 120 116 113 65 60 49 46 64 71 76 55 54 50 49 46 43
9 85 260 71 49 26 71 77 242 258 282 276 269 227 275 271 180 141 348 242 288 244 308 307 278 50 258 356 175 274 296 308 316 289 348 6 42 17 71 98 135 147 161 163 161 162 172 176 186 186 184 182 175 170 175 180 186 181 179 180 181 187 189 182 174 184 191 177 180 185 179 174 179 163 157 157 145 140 132 137 123 123 115 94 82 72 70 68 49 59 73 64 57 55 53 46 41
49 32 269 108 138 48 12 283 98 175 241 218 257 262 219 215 183 266 201 343 265 308 254 341 153 56 295 18 330 4 352 330 299 7 16 2 6 50 62 32 27 133 148 152 139 164 167 182 190 195 187 191 184 175 177 181 185 182 186 185 184 189 190 180 194 187 189 192 196 195 196 191 184 153 164 167 160 150 142 138 136 130 115 101 88 79 75 43 81 86 83 71 66 62 59 50 45
9 17 133 76 32 98 145 223 269 317 266 317 283 247 237 196 198 105 207 264 5 218 314 146 69 155 127 310 203 254 323 18 32 352 334 338 350 56 86 74 92 126 133 65 35 34 106 193 205 206 196 202 196 181 180 184 192 193 196 190 191 192 180 162 196 191 193 204 201 201 204 198 187 165 181 177 168 164 154 151 151 143 130 112 97 90 70 71 43 98 87 79 76 70 64 60 50
352 22 6 96 133 150 218 149 280 286 296 318 99 310 189 158 139 76 301 6 0 314 210 102 1 156 54 342 96 350 319 21 3 316 320 329 7 2 74 85 93 113 132 134 97 74 73 270 214 212 214 209 215 189 182 185 199 199 192 199 193 194 187 167 189 203 198 204 214 218 216 208 170 179 170 200 182 173 161 154 158 140 126 114 109 95 63 49 94 98 88 84 79 72 67 63 59
104 85 77 79 156 169 147 112 243 300 337 300 124 138 138 117 218 170 227 246 74 353 21 198 180 89 328 159 231 314 18 348 348 327 326 348 359 2 19 18 21 80 97 120 124 81 76 42 228 220 215 206 214 215 188 180 191 195 194 192 187 185 183 173 189 204 211 205 207 220 219 111 156 166 173 193 199 209 162 156 171 149 130 127 113 54 63 86 101 101 98 92 81 74 70 68 67
114 182 120 136 23 111 140 312 331 124 4 220 266 288 240 172 218 190 131 11 301 81 272 165 110 156 273 18 331 334 313 336 330 333 312 354 20 39 41 34 38 36 43 57 86 100 78 76 251 223 223 220 215 209 212 190 181 195 194 197 188 176 176 173 182 196 210 222 196 167 104 151 155 158 147 188 183 196 179 148 178 147 149 134 93 85 100 103 105 105 104 95 85 78 71 65 67
114 165 85 116 42 63 238 103 177 132 128 131 341 352 4 281 109 123 158 144 294 209 293 176 210 95 232 48 290 329 335 325 320 314 321 7 25 40 39 31 37 41 30 27 23 29 33 18 210 218 219 220 220 222 210 207 190 186 191 188 186 181 176 176 178 183 199 209 146 123 130 146 147 128 124 156 177 194 155 145 178 179 182 154 107 99 110 106 106 106 103 95 87 80 71 62 61
138 89 81 100 197 133 216 147 293 90 169 182 342 183 67 332 182 113 262 170 277 0 8 306 131 309 92 109 312 320 311 314 313 320 352 24 359 27 23 22 12 17 28 23 15 12 348 331 287 226 225 212 211 215 216 209 205 192 188 186 184 180 179 181 180 171 180 168 137 129 129 130 147 126 132 118 161 197 165 172 195 191 180 158 124 108 113 113 115 111 101 93 86 78 72 64 57
67 82 57 42 157 184 210 162 151 147 246 267 305 62 101 281 282 241 0 27 273 313 359 243 42 19 73 78 324 304 310 309 341 21 31 20 8 4 6 10 357 5 6 9 11 355 345 335 308 237 236 229 212 202 202 205 199 196 198 190 190 184 180 185 183 177 168 158 140 128 116 125 164 135 148 166 173 159 177 185 198 171 96 85 104 117 125 125 121 110 99 94 87 84 75 63 49
53 60 119 57 198 112 195 170 189 190 105 286 42 46 76 351 333 314 120 38 37 316 339 318 47 68 86 125 339 306 311 17 21 43 30 34 19 10 11 360 4 355 346 345 357 358 351 346 334 300 235 240 225 215 195 192 180 191 203 204 190 190 189 184 191 197 177 178 144 144 155 173 173 154 150 153 170 153 183 177 186 134 134 132 133 141 133 125 120 109 103 95 90 84 76 73 52
82 138 83 218 185 244 150 199 201 130 290 219 299 256 141 252 194 322 10 299 27 357 317 1 345 162 50 35 6 11 7 31 31 45 44 36 26 24 8 351 357 351 353 347 341 350 349 332 336 337 316 244 241 224 210 192 179 176 185 191 189 197 196 185 195 192 195 183 182 174 159 182 178 161 158 152 168 151 196 190 159 123 116 133 141 131 127 125 119 114 111 103 93 82 71 72 69
233 108 41 259 209 252 221 182 208 198 150 353 327 79 22 262 180 317 309 293 340 320 285 341 302 259 358 342 2 359 19 32 37 38 42 37 30 22 10 359 351 351 338 335 324 326 337 337 333 320 313 310 228 239 224 202 194 180 175 177 195 190 183 211 191 184 207 174 177 188 187 194 187 177 153 166 160 156 186 194 228 166 138 134 133 128 126 130 129 135 125 109 93 62 80 74 82
226 72 156 217 180 93 217 189 234 211 149 143 120 337 350 284 224 5 203 341 301 313 240 180 290 327 329 339 356 4 20 28 28 32 32 27 25 28 18 359 340 327 324 311 319 333 334 331 329 319 319 304 287 213 224 217 178 169 182 191 206 211 235 192 186 204 198 202 199 194 188 183 188 185 175 176 198 174 190 185 172 197 149 133 129 111 125 132 129 106 97 102 130 114 102 88 106
118 84 190 155 130 223 245 211 193 156 202 120 93 352 259 130 32 191 158 228 269 173 354 22 81 69 20 353 351 18 27 30 24 26 25 21 11 3 356 350 337 301 317 340 339 329 329 327 321 312 300 288 288 241 211 192 172 187 170 179 180 226 259 247 265 184 206 214 202 200 194 192 199 195 192 191 199 179 173 156 155 165 195 148 148 144 157 138 110 131 136 135 129 115 108 112 79
245 310 260 210 197 193 256 192 215 153 111 138 194 227 68 80 265 216 171 207 279 337 16 67 57 47 61 48 28 23 27 26 23 20 13 11 3 -0 357 349 349 346 345 339 329 324 326 332 335 326 299 278 264 272 158 164 175 159 158 131 214 204 201 223 194 189 206 233 211 191 191 208 202 208 203 196 194 179 164 176 165 149 169 314 213 149 148 143 154 149 148 139 135 129 112 109 103
105 218 160 256 178 210 188 199 106 173 142 236 182 67 259 227 305 138 163 28 101 51 68 76 65 54 33 53 33 41 34 30 22 17 13 9 357 349 349 344 339 328 331 338 338 330 336 339 333 330 324 239 193 266 154 134 133 133 119 164 226 215 71 25 47 63 48 176 229 222 207 209 204 201 200 191 198 186 177 160 150 162 172 162 355 306 138 167 143 142 144 147 137 118 125 121 115
99 303 210 221 147 248 285 255 256 241 243 253 172 238 238 186 210 124 88 120 83 79 51 61 55 52 45 49 36 30 31 23 19 6 13 9 356 340 346 343 345 342 352 350 338 344 340 330 337 352 38 126 143 48 106 96 76 82 79 26 26 4 341 355 14 75 75 35 19 92 210 202 220 223 207 191 107 76 105 144 136 163 152 134 148 206 185 143 155 162 155 124 103 116 130 123 107
167 215 115 300 267 304 273 279 240 232 257 158 124 225 266 240 109 323 152 142 136 89 65 36 38 51 41 38 32 29 28 24 6 12 6 346 352 4 7 360 348 360 349 331 341 341 335 332 349 356 19 103 121 112 89 88 83 74 62 52 9 39 332 299 347 36 101 75 77 136 208 196 206 160 163 328 144 140 134 97 106 117 154 140 170 193 220 164 164 136 120 130 132 130 138 126 134
154 211 204 284 286 336 301 205 258 210 230 170 223 122 202 12 119 262 89 167 142 74 53 34 51 53 40 40 29 25 26 18 8 345 359 7 8 15 353 352 2 345 336 345 346 344 332 343 355 3 17 26 92 104 100 96 85 87 64 57 29 13 32 8 21 4 9 14 344 208 178 139 138 128 144 151 106 124 95 106 116 128 178 136 231 265 107 9 126 141 157 170 148 155 154 125 136
35 7 325 299 327 275 248 281 287 339 295 168 179 232 248 294 152 244 166 181 104 87 47 38 41 43 35 37 41 23 28 9 3 10 16 6 2 352 349 356 343 338 349 348 343 330 354 1 3 18 24 44 61 63 64 63 59 55 48 49 47 40 43 40 39 29 30 25 26 22 23 25 11 358 111 130 113 93 68 70 69 163 157 120 94 89 58 33 35 55 38 34 116 160 134 132 143
285 34 327 301 346 336 359 322 339 3 281 154 163 23 341 356 217 356 150 112 92 82 68 41 42 32 30 28 40 38 25 9 9 19 8 357 345 345 342 346 340 336 340 331 331 348 13 3 16 29 39 49 59 64 66 66 64 59 62 56 53 55 50 50 42 32 34 31 30 21 34 30 28 32 19 21 47 75 94 86 58 20 23 33 27 55 97 96 100 114 64 76 73 64 113 127 135
169 34 94 324 353 326 321 316 352 355 253 75 250 303 295 294 273 163 172 141 121 67 41 31 24 30 15 20 38 39 26 21 20 13 359 354 350 348 344 344 343 342 334 341 339 10 1 352 17 41 51 59 62 66 68 69 66 69 65 63 63 63 57 57 49 40 32 40 35 23 31 35 26 36 41 48 46 53 48 48 43 37 37 63 64 39 35 18 18 10 35 23 41 16 173 80 62
222 257 62 277 355 276 294 74 305 8 94 22 139 234 274 278 269 353 271 180 184 95 49 17 19 16 9 19 25 36 33 29 17 8 2 354 352 347 346 343 348 348 340 347 3 352 6 12 17 52 59 69 72 75 77 77 75 72 68 66 59 60 63 61 58 55 49 38 33 30 24 33 27 36 47 64 56 60 63 56 44 39 49 55 59 56 67 53 48 42 18 -0 15 14 23 33 23
21 13 294 323 156 278 298 337 23 192 359 18 107 324 244 208 232 344 331 210 152 105 77 16 14 6 13 11 31 30 27 18 17 17 8 355 357 350 350 346 347 349 354 349 350 355 22 20 27 61 58 65 66 70 71 72 72 68 66 64 63 57 58 54 48 41 40 41 40 37 22 29 33 27 28 27 50 53 66 64 52 52 67 72 59 41 51 47 46 65 44 27 355 4 -0 34 23
354 152 274 272 146 264 332 310 259 239 327 5 141 247 329 275 234 339 348 151 108 125 174 228 19 15 8 22 27 30 22 15 14 10 3 358 353 353 349 348 353 350 350 354 358 355 26 21 24 29 39 46 63 70 70 70 71 70 69 67 65 57 52 51 49 47 45 43 38 36 24 26 32 33 34 29 37 39 46 54 52 55 62 69 67 64 77 80 81 84 52 33 27 24 16 11 26
278 27 222 207 209 243 238 301 35 30 86 228 15 192 245 140 205 326 358 53 132 143 186 175 105 34 24 21 32 30 31 19 10 354 348 350 343 351 352 353 353 352 356 360 359 3 25 22 26 30 36 43 54 62 69 72 71 72 68 66 63 62 57 55 52 51 48 46 43 39 31 34 32 31 31 28 35 33 41 47 43 42 44 51 60 53 57 45 48 64 72 38 76 96 55 6 6
202 177 258 287 251 223 250 143 229 30 31 37 334 308 282 261 206 12 343 12 132 181 178 150 88 56 32 34 34 30 28 24 359 345 340 340 347 351 356 354 356 2 3 6 5 12 26 29 30 33 34 35 50 59 64 72 74 75 70 64 57 55 52 47 46 51 44 44 41 35 36 38 33 34 31 34 42 39 35 34 38 34 38 45 52 55 47 42 59 64 79 57 27 38 70 65 341
182 167 181 178 211 236 214 235 273 54 310 309 280 256 272 277 219 72 1 0 150 157 94 76 56 41 40 40 30 32 23 16 347 339 341 345 348 352 356 351 349 10 15 8 19 23 23 28 30 42 29 23 49 63 70 75 69 58 65 60 53 47 46 48 45 48 42 45 38 41 41 45 39 43 38 37 46 41 42 36 39 33 35 41 43 43 39 35 35 45 52 49 63 83 62 23 354
101 100 112 204 216 273 271 240 264 319 17 238 241 255 258 270 273 320 345 40 65 81 68 46 33 33 34 26 30 20 29 12 326 330 357 350 350 356 358 0 353 16 27 17 27 25 23 23 32 39 19 23 43 58 52 53 68 79 64 58 66 46 55 57 54 47 50 45 39 41 40 41 37 41 36 41 43 48 46 41 39 37 39 45 47 43 30 38 41 45 77 48 44 49 30 6 3
158 134 168 248 183 252 240 260 7 326 165 291 83 291 262 256 271 292 342 171 186 280 344 34 46 51 31 37 22 3 326 305 356 9 3 357 357 359 0 7 5 24 11 18 30 18 19 23 42 35 24 42 50 58 77 69 59 62 90 79 82 58 46 47 52 44 46 46 43 40 41 38 40 42 36 40 45 46 50 49 45 42 39 49 56 49 42 38 34 33 24 68 42 61 56 1 356
88 178 187 235 255 247 286 290 345 283 119 265 11 301 269 266 244 198 53 170 207 48 178 187 169 105 67 57 37 22 22 1 5 11 2 358 356 359 4 4 5 15 14 29 17 26 23 28 32 34 35 49 52 57 69 79 74 71 82 91 80 85 60 62 67 59 51 53 46 42 38 37 37 40 35 38 44 40 46 50 46 44 42 36 47 43 38 39 32 35 31 42 58 48 73 31 21
162 102 148 229 207 148 287 283 4 16 159 260 21 328 287 272 117 44 337 131 170 119 123 116 148 151 144 133 191 153 49 11 21 7 355 355 359 360 5 6 356 357 20 23 18 23 24 28 23 30 39 44 56 60 79 82 85 90 83 87 78 75 82 73 71 57 51 49 47 41 41 39 40 44 38 39 44 43 40 44 43 43 41 35 42 47 38 35 28 27 27 33 31 59 37 36 24
254 199 206 218 178 230 191 243 252 295 38 66 155 316 293 289 270 234 312 203 125 340 80 89 88 129 183 190 161 177 180 123 38 21 7 4 5 5 -0 350 343 13 18 19 9 17 26 23 22 34 45 47 45 52 76 98 105 94 94 90 94 94 68 58 57 47 43 49 52 38 35 35 39 42 39 40 42 44 41 40 42 41 41 34 37 43 41 34 31 29 19 31 28 42 52 29 27
291 230 206 210 201 217 253 343 12 12 326 318 154 328 301 294 284 259 268 330 45 327 133 220 236 291 128 161 200 259 130 150 162 327 327 330 3 357 7 3 7 12 18 2 359 13 23 29 30 40 54 49 48 46 52 71 77 92 105 93 74 68 58 42 45 45 41 42 50 48 43 37 38 43 39 38 39 39 41 38 38 40 37 34 33 40 36 32 28 27 20 24 30 21 52 43 36
158 267 195 211 205 179 154 137 100 249 199 285 24 164 258 327 309 247 281 291 277 292 237 239 250 220 215 214 216 221 183 76 59 48 25 41 13 26 21 14 3 13 9 351 7 20 28 41 45 50 59 58 47 49 47 86 84 80 79 81 88 86 98 71 68 58 70 66 63 55 53 45 38 44 42 40 41 41 44 41 41 43 43 41 33 39 37 32 29 26 16 29 26 21 27 59 34
229 251 139 152 148 172 199 166 181 229 266 314 70 131 189 307 282 6 284 256 265 263 236 230 222 217 218 218 220 215 197 197 176 162 17 24 32 36 12 351 2 359 345 11 28 20 37 42 52 59 59 62 51 61 68 55 91 89 92 87 82 86 86 104 90 79 68 71 68 56 54 50 45 43 44 42 40 41 43 45 41 44 47 41 39 43 41 29 32 30 31 31 35 31 25 46 46
222 276 130 152 167 182 143 150 182 281 16 276 332 261 324 242 268 1 338 310 261 246 215 215 214 216 211 220 218 208 198 195 188 163 128 37 342 355 3 19 357 18 15 26 27 31 32 39 59 63 59 59 53 60 76 66 78 94 98 106 94 79 90 92 92 78 75 63 73 57 56 51 50 47 43 41 38 39 40 42 39 42 42 38 36 38 37 36 36 32 26 28 29 32 32 31 45
203 120 86 78 72 67 102 106 107 354 87 258 238 188 214 279 275 326 353 269 271 247 198 200 206 199 201 209 212 200 196 193 189 200 204 209 342 346 332 3 43 18 11 24 35 35 37 41 64 63 52 46 45 60 74 77 78 92 95 95 100 102 96 93 82 74 68 58 71 62 58 54 46 46 42 39 40 39 40 40 42 42 41 38 38 36 31 31 28 32 31 33 29 36 28 32 44
132 101 77 36 41 52 43 68 95 63 259 246 220 200 183 289 249 219 152 214 201 105 287 228 197 201 211 214 197 189 188 191 188 180 200 213 215 163 59 77 44 43 38 45 44 46 40 48 67 72 55 54 50 61 69 75 78 75 92 96 99 105 99 97 91 70 70 62 68 61 60 62 55 52 46 44 43 38 43 43 45 46 45 41 38 35 33 31 28 29 27 33 35 30 22 22 33
117 118 129 91 7 9 31 340 34 181 266 260 282 215 161 190 284 270 235 262 193 163 185 188 195 200 201 196 193 194 189 188 185 185 174 153 119 94 95 88 75 69 66 63 64 57 63 57 75 86 63 53 55 64 74 75 77 75 79 86 90 93 99 98 93 91 75 77 70 74 71 67 55 55 45 44 36 31 37 43 42 45 43 38 38 34 32 30 29 31 34 34 31 29 24 22 20
79 89 94 122 238 40 280 17 257 214 217 265 330 147 307 238 227 236 259 225 218 220 190 190 191 193 188 190 193 187 188 187 191 189 178 176 170 153 131 129 117 101 101 91 82 84 83 80 78 92 74 57 61 64 77 78 78 74 82 86 90 95 92 90 91 92 89 88 88 84 71 69 60 54 40 46 34 29 34 35 34 35 35 36 32 31 25 23 23 30 31 31 30 26 18 12 21
129 161 150 110 156 182 262 259 258 304 280 275 281 249 268 260 279 239 233 238 204 191 219 272 215 190 183 188 184 183 194 197 192 185 190 185 178 173 158 147 141 131 104 91 87 88 90 90 84 88 90 66 75 76 76 81 72 75 75 82 85 89 89 92 95 99 97 91 87 82 76 75 70 63 54 49 32 34 43 46 46 48 45 41 39 36 34 29 24 32 29 29 27 23 12 14 14
202 99 151 179 144 158 215 189 204 219 192 301 280 94 232 131 241 346 297 344 304 293 282 270 288 196 176 170 170 185 197 205 192 190 191 191 187 174 166 163 163 148 127 103 101 101 98 96 97 100 98 77 77 78 80 79 81 75 75 77 82 87 99 96 91 92 98 97 88 87 78 72 73 66 62 56 43 47 46 42 42 45 39 38 38 38 35 34 33 32 36 31 24 24 10 11 9
174 163 77 94 232 143 200 209 157 243 342 336 206 215 191 164 264 290 305 304 321 339 350 150 212 165 153 169 189 196 203 202 191 195 200 197 183 168 166 172 170 155 143 133 123 124 118 114 109 101 104 105 92 90 81 88 90 90 87 91 92 95 96 95 92 84 78 80 84 83 81 70 71 75 68 59 47 48 44 39 36 38 32 31 29 28 23 24 19 23 23 21 19 13 6 7 3
201 111 195 209 150 100 93 62 51 75 49 255 141 294 296 306 324 356 339 344 278 60 63 164 189 180 174 195 196 202 204 199 195 200 196 183 168 179 177 174 165 154 154 158 158 150 143 134 127 117 109 102 100 100 107 105 106 101 93 95 101 94 89 87 92 91 89 82 81 78 78 76 76 68 66 59 51 46 46 43 37 36 32 29 27 27 23 20 17 20 22 12 10 5 3 358 351
101 191 230 159 148 117 133 227 359 65 201 270 113 211 256 136 254 332 342 310 258 180 170 207 202 182 196 203 200 203 202 200 198 199 190 177 181 181 181 172 162 164 164 165 167 160 152 146 139 128 128 122 127 124 120 123 118 106 107 101 91 91 95 103 107 107 99 89 74 72 75 79 69 67 72 63 64 60 53 47 44 38 34 28 27 17 22 13 14 20 16 12 358 351 350 350 343
150 194 197 126 214 209 286 84 257 200 257 271 274 208 247 178 221 114 237 229 241 208 183 183 207 205 209 204 209 207 198 195 201 198 179 177 178 184 179 169 166 168 169 171 167 160 157 150 144 137 137 139 139 133 122 115 111 108 113 110 107 103 112 109 103 96 89 88 91 93 97 106 109 91 86 79 70 62 49 37 38 29 25 23 18 14 10 10 8 7 7 1 359 358 352 348 349
33 80 97 318 107 162 128 198 176 113 255 51 275 133 258 190 207 181 200 205 217 158 184 215 212 206 201 203 202 197 199 203 198 183 174 181 191 183 169 168 171 175 174 176 167 159 163 158 143 139 129 133 134 134 135 127 130 125 122 113 102 115 117 114 110 112 106 105 114 114 110 98 89 85 71 61 51 47 37 31 26 22 14 14 10 7 5 3 -0 3 353 352 349 350 348 343 340
134 134 191 160 21 228 105 63 146 171 187 201 285 297 275 238 209 172 197 196 195 176 198 212 211 210 212 211 203 198 202 200 180 171 178 184 182 174 170 169 169 166 165 162 165 167 166 156 153 162 153 156 149 147 139 139 138 137 131 126 131 127 116 108 111 110 105 97 94 86 78 82 82 63 57 52 50 41 31 29 18 16 15 3 3 357 355 353 349 344 342 335 335 339 337 332 330
178 169 189 177 141 138 167 250 64 143 129 237 176 258 200 253 105 207 188 254 201 219 208 213 212 212 213 213 209 206 203 182 168 173 177 183 174 171 174 170 163 161 171 175 174 165 164 170 171 166 162 162 154 159 154 150 150 138 131 129 125 125 122 106 95 90 91 103 98 90 93 85 77 69 62 48 47 33 27 22 14 10 5 355 349 347 342 342 337 333 329 328 327 330 324 320 321